Wahoo, NE

1:43 PM CDT on October 01, 2016 (GMT -0500)
Wahoo Municipal

Weather History for KAHQ - October, 2013

Change the Weather History Date:

Sunday, October 6, 2013

  Actual Average Record
Temperature  
Mean Temperature 50 °F -  
Max Temperature 58 °F 69 °F 93 °F (1963)
Min Temperature 42 °F 42 °F 25 °F (2012)
Degree Days  
Heating Degree Days 15    
Moisture  
Dew Point 40 °F    
Average Humidity 74    
Maximum Humidity 91    
Minimum Humidity 44    
Precipitation  
Precipitation 0.00 in - - ()
Sea Level Pressure  
Sea Level Pressure 29.89 in    
Wind  
Wind Speed 14 mph (NW)    
Max Wind Speed 21 mph    
Max Gust Speed 31 mph    
Visibility 10 miles    
Events Rain    
Averages and records for this station are not official NWS values.
T = Trace of Precipitation, MM = Missing Value Source: NWS Daily Summary

Daily Weather History Graph

Daily Weather History Graph

Search for Another Location

Airport or City:

Trip Planner

Search our weather history database for the weather conditions in past years. The results will help you decide how hot, cold, wet, or windy it might be!

Date:

Astronomy

Oct. 06, 2013 Rise Set
Actual Time 7:28 AM CDT 6:59 PM CDT
Civil Twilight 7:01 AM CDT 7:27 PM CDT
Nautical Twilight 6:29 AM CDT 7:58 PM CDT
Astronomical Twilight 5:56 AM CDT 8:30 PM CDT
Moon 9:15 AM CDT (10/6) 7:58 PM CDT (10/6)
Length of Visible Light 12h 25m
Length of Day
11h 30m
Waxing Crescent, 3% of the Moon is Illuminated
Oct 6
Waxing Crescent
Oct 11
First Quarter
Oct 18
Full
Oct 26
Last Quarter
Nov 3
New

Hourly Weather History & Observations

Time (CDT) Temp. Windchill Dew Point Humidity Pressure Visibility Wind Dir Wind Speed Gust Speed Precip Events Conditions
12:15 AM 42.8 °F 35.4 °F 37.6 °F 82% 29.80 in 10.0 mi West 15.0 mph 20.7 mph N/A   Overcast
12:35 AM 43.0 °F 35.7 °F 37.6 °F 81% 29.80 in 10.0 mi West 15.0 mph 20.7 mph N/A   Overcast
12:55 AM 43.0 °F 34.8 °F 37.8 °F 82% 29.80 in 10.0 mi West 18.4 mph 24.2 mph N/A   Overcast
1:15 AM 43.2 °F 35.9 °F 37.9 °F 82% 29.80 in 10.0 mi West 15.0 mph 24.2 mph N/A   Overcast
1:35 AM 42.8 °F 35.1 °F 38.7 °F 85% 29.80 in 10.0 mi West 16.1 mph 24.2 mph N/A   Light Drizzle
1:55 AM 43.0 °F 35.1 °F 39.4 °F 87% 29.79 in 10.0 mi West 17.3 mph 27.6 mph N/A Rain Rain
2:15 AM 43.3 °F 37.2 °F 39.7 °F 87% 29.80 in 10.0 mi West 11.5 mph 24.2 mph N/A Rain Light Rain
2:35 AM 43.9 °F 36.5 °F 40.3 °F 87% 29.79 in 10.0 mi WNW 16.1 mph 24.2 mph N/A   Overcast
2:55 AM 44.2 °F 37.6 °F 40.6 °F 87% 29.79 in 10.0 mi WNW 13.8 mph 21.9 mph N/A   Overcast
3:15 AM 44.6 °F 38.4 °F 40.6 °F 86% 29.80 in 10.0 mi WNW 12.7 mph 23.0 mph N/A   Overcast
3:35 AM 44.6 °F 38.1 °F 40.3 °F 85% 29.80 in 10.0 mi WNW 13.8 mph 19.6 mph N/A   Overcast
3:55 AM 44.6 °F 38.4 °F 39.7 °F 83% 29.81 in 10.0 mi NW 12.7 mph 23.0 mph N/A   Overcast
4:15 AM 44.1 °F 37.1 °F 39.6 °F 84% 29.82 in 10.0 mi NW 15.0 mph 21.9 mph N/A   Overcast
4:35 AM 44.2 °F 38.4 °F 40.1 °F 85% 29.82 in 10.0 mi NW 11.5 mph 18.4 mph N/A   Overcast
4:55 AM 44.2 °F 38.0 °F 41.0 °F 88% 29.82 in 7.0 mi WNW 12.7 mph 16.1 mph N/A   Light Drizzle
5:15 AM 44.6 °F 38.4 °F 41.4 °F 88% 29.83 in 7.0 mi WNW 12.7 mph 17.3 mph N/A Rain Light Rain
5:35 AM 44.2 °F 38.4 °F 41.9 °F 91% 29.83 in 5.0 mi WNW 11.5 mph 18.4 mph N/A   Drizzle
5:55 AM 44.2 °F 37.6 °F 41.2 °F 89% 29.83 in 10.0 mi NW 13.8 mph 20.7 mph N/A   Overcast
6:15 AM 44.6 °F 38.4 °F 41.2 °F 88% 29.84 in 10.0 mi WNW 12.7 mph 19.6 mph N/A   Overcast
6:35 AM 44.6 °F 38.1 °F 41.0 °F 87% 29.85 in 10.0 mi NW 13.8 mph 19.6 mph N/A   Overcast
6:55 AM 44.6 °F 38.4 °F 40.6 °F 86% 29.85 in 10.0 mi WNW 12.7 mph 19.6 mph N/A   Overcast
7:15 AM 44.6 °F 38.1 °F 40.6 °F 86% 29.85 in 10.0 mi WNW 13.8 mph - N/A   Overcast
7:35 AM 44.8 °F 39.4 °F 40.5 °F 85% 29.85 in 10.0 mi WNW 10.4 mph 19.6 mph N/A   Overcast
7:55 AM 45.1 °F 39.1 °F 41.0 °F 85% 29.85 in 10.0 mi WNW 12.7 mph - N/A   Overcast
8:15 AM 45.5 °F 39.9 °F 41.2 °F 85% 29.86 in 10.0 mi WNW 11.5 mph 16.1 mph N/A   Overcast
8:35 AM 46.0 °F 40.6 °F 42.4 °F 87% 29.86 in 10.0 mi WNW 11.5 mph 20.7 mph N/A   Overcast
8:55 AM 46.6 °F - 42.8 °F 87% 29.87 in 10.0 mi WNW 12.7 mph 20.7 mph N/A   Overcast
9:15 AM 47.7 °F - 43.3 °F 85% 29.87 in 10.0 mi WNW 15.0 mph 19.6 mph N/A   Overcast
9:35 AM 48.4 °F - 43.2 °F 82% 29.87 in 10.0 mi WNW 13.8 mph 20.7 mph N/A   Overcast
9:55 AM 49.1 °F - 43.3 °F 81% 29.87 in 10.0 mi NW 15.0 mph 19.6 mph N/A   Overcast
10:15 AM 49.5 °F - 43.7 °F 81% 29.88 in 10.0 mi WNW 16.1 mph 23.0 mph N/A   Overcast
10:35 AM 49.5 °F - 43.7 °F 81% 29.88 in 10.0 mi NW 17.3 mph 24.2 mph N/A   Overcast
10:55 AM 49.1 °F - 43.0 °F 79% 29.88 in 10.0 mi WNW 13.8 mph 27.6 mph N/A   Overcast
11:15 AM 49.1 °F - 42.4 °F 78% 29.89 in 10.0 mi WNW 19.6 mph 28.8 mph N/A   Overcast
11:35 AM 49.5 °F - 42.8 °F 78% 29.88 in 10.0 mi NW 19.6 mph 31.1 mph N/A   Overcast
11:55 AM 49.5 °F - 43.3 °F 79% 29.89 in 10.0 mi NW 16.1 mph 23.0 mph N/A   Overcast
12:15 PM 50.0 °F - 42.8 °F 76% 29.90 in 10.0 mi NW 16.1 mph 28.8 mph N/A   Overcast
12:35 PM 50.4 °F - 42.8 °F 75% 29.89 in 10.0 mi WNW 19.6 mph 26.5 mph N/A   Overcast
12:55 PM 50.4 °F - 42.3 °F 74% 29.90 in 10.0 mi NW 20.7 mph 28.8 mph N/A   Overcast
1:15 PM 50.9 °F - 42.1 °F 72% 29.90 in 10.0 mi NW 20.7 mph 26.5 mph N/A   Overcast
1:35 PM 49.5 °F - 41.7 °F 75% 29.90 in 10.0 mi NW 17.3 mph 26.5 mph N/A   Overcast
1:55 PM 50.0 °F - 41.7 °F 73% 29.90 in 10.0 mi NW 19.6 mph 31.1 mph N/A   Overcast
2:15 PM 50.2 °F - 42.3 °F 74% 29.90 in 10.0 mi NW 17.3 mph 25.3 mph N/A   Overcast
2:35 PM 50.0 °F - 41.9 °F 74% 29.90 in 10.0 mi NW 15.0 mph 26.5 mph N/A   Overcast
2:55 PM 50.4 °F - 42.1 °F 73% 29.90 in 10.0 mi WNW 17.3 mph 25.3 mph N/A   Overcast
3:15 PM 50.5 °F - 42.6 °F 74% 29.91 in 10.0 mi NW 15.0 mph 24.2 mph N/A   Overcast
3:35 PM 49.5 °F - 43.9 °F 81% 29.91 in 7.0 mi NW 15.0 mph 24.2 mph N/A   Overcast
3:55 PM 50.9 °F - 43.7 °F 76% 29.91 in 10.0 mi NW 13.8 mph 17.3 mph N/A   Overcast
4:15 PM 52.0 °F - 43.5 °F 73% 29.91 in 10.0 mi NW 10.4 mph 17.3 mph N/A   Overcast
4:35 PM 52.5 °F - 43.7 °F 72% 29.91 in 10.0 mi NW 9.2 mph - N/A   Overcast
4:55 PM 53.1 °F - 43.9 °F 71% 29.92 in 10.0 mi NNW 8.1 mph - N/A   Overcast
5:15 PM 53.4 °F - 44.1 °F 71% 29.92 in 10.0 mi North 6.9 mph - N/A   Overcast
5:35 PM 53.6 °F - 44.4 °F 71% 29.92 in 10.0 mi NNW 5.8 mph - N/A   Overcast
5:55 PM 54.5 °F - 44.6 °F 69% 29.93 in 10.0 mi NNW 3.5 mph - N/A   Mostly Cloudy
6:15 PM 54.7 °F - 45.3 °F 71% 29.93 in 10.0 mi North 3.5 mph - N/A   Scattered Clouds
6:35 PM 58.1 °F - 36.3 °F 44% 29.94 in 10.0 mi NW 12.7 mph 19.6 mph N/A   Clear
6:55 PM 56.3 °F - 35.6 °F 46% 29.95 in 10.0 mi NW 13.8 mph 19.6 mph N/A   Clear
7:15 PM 55.2 °F - 34.3 °F 45% 29.95 in 10.0 mi NW 11.5 mph 17.3 mph N/A   Clear
7:35 PM 54.9 °F - 33.3 °F 44% 29.96 in 10.0 mi NW 11.5 mph 18.4 mph N/A   Clear
7:55 PM 54.5 °F - 32.7 °F 44% 29.96 in 10.0 mi NW 11.5 mph - N/A   Clear
8:15 PM 52.9 °F - 33.6 °F 48% 29.97 in 10.0 mi NW 9.2 mph - N/A   Clear
8:35 PM 51.1 °F - 34.2 °F 52% 29.97 in 10.0 mi NW 8.1 mph - N/A   Clear
8:55 PM 51.3 °F - 34.3 °F 52% 29.98 in 10.0 mi NW 9.2 mph - N/A   Clear
9:15 PM 51.4 °F - 34.7 °F 53% 29.99 in 10.0 mi WNW 8.1 mph - N/A   Clear
9:35 PM 51.1 °F - 35.1 °F 54% 30.00 in 10.0 mi WNW 8.1 mph - N/A   Clear
9:55 PM 51.1 °F - 34.2 °F 52% 30.00 in 10.0 mi NW 8.1 mph - N/A   Clear
10:15 PM 52.0 °F - 34.3 °F 51% 30.01 in 10.0 mi NW 10.4 mph - N/A   Clear
10:35 PM 52.0 °F - 34.7 °F 52% 30.01 in 10.0 mi NW 9.2 mph - N/A   Clear
10:55 PM 51.8 °F - 34.9 °F 53% 30.01 in 10.0 mi NW 9.2 mph - N/A   Clear
11:15 PM 51.1 °F - 35.6 °F 55% 30.02 in 10.0 mi WNW 10.4 mph - N/A   Clear
11:35 PM 50.5 °F - 36.0 °F 57% 30.01 in 10.0 mi WNW 8.1 mph - N/A   Clear
11:55 PM 50.2 °F - 36.0 °F 58% 30.02 in 10.0 mi NW 8.1 mph - N/A   Clear